Weather History for Pine River, MN

Change the Weather History Date:

Wednesday, February 5, 2014

  Actual Average Record
Temperature  
Mean Temperature -4 °F -  
Max Temperature 1 °F 24 °F 46 °F (2005)
Min Temperature -9 °F 4 °F -36 °F (2007)
Degree Days  
Heating Degree Days 69    
Moisture  
Dew Point -12 °F    
Average Humidity 73    
Maximum Humidity 84    
Minimum Humidity 61    
Precipitation  
Precipitation 0.00 in - - ()
Sea Level Pressure  
Sea Level Pressure 30.48 in    
Wind  
Wind Speed 4 mph (NW)    
Max Wind Speed 12 mph    
Max Gust Speed -    
Visibility 10 miles    
Events      
Averages and records for this station are not official NWS values.
T = Trace of Precipitation, MM = Missing Value Source: NWS Daily Summary

Daily Weather History Graph

Daily Weather History Graph

Search for Another Location

Airport:

Trip Planner

Search our weather history database for the weather conditions in past years. The results will help you decide how hot, cold, wet, or windy it might be!

Date:

Astronomy

Feb. 05, 2014 Rise Set
Actual Time 7:36 AM CST 5:27 PM CST
Civil Twilight 7:04 AM CST 5:59 PM CST
Nautical Twilight 6:28 AM CST 6:35 PM CST
Astronomical Twilight 5:53 AM CST 7:10 PM CST
Moon 10:25 AM CST (2/5) No Moon Set
Length of Visible Light 10h 54m
Length of Day
9h 50m
Waxing Crescent, 39% of the Moon is Illuminated
Feb 5
Waxing Crescent
Feb 6
First Quarter
Feb 14
Full
Feb 22
Last Quarter
Mar 1
New

Hourly Weather History & Observations

Time (CST) Temp. Windchill Dew Point Humidity Pressure Visibility Wind Dir Wind Speed Gust Speed Precip Events Conditions
12:13 AM -7.6 °F - -16.6 °F 65% 30.50 in 10.0 mi Calm Calm - N/A   Clear
12:33 AM -9.4 °F - -16.6 °F 71% 30.51 in 7.0 mi Calm Calm - N/A   Clear
12:52 AM -9.4 °F - -16.6 °F 71% 30.51 in 10.0 mi Calm Calm - N/A   Clear
1:13 AM -9.4 °F - -16.6 °F 71% 30.52 in 10.0 mi Calm Calm - N/A   Clear
1:33 AM -7.6 °F - -14.8 °F 71% 30.51 in 10.0 mi Calm Calm - N/A   Clear
1:52 AM -7.6 °F - -14.8 °F 71% 30.52 in 10.0 mi Calm Calm - N/A   Clear
2:12 AM -7.6 °F -16.5 °F -14.8 °F 71% 30.52 in 10.0 mi WNW 3.5 mph - N/A   Clear
2:33 AM -7.6 °F -18.8 °F -14.8 °F 71% 30.52 in 10.0 mi NW 4.6 mph - N/A   Clear
2:52 AM -7.6 °F -20.6 °F -14.8 °F 71% 30.52 in 10.0 mi NNW 5.8 mph - N/A   Clear
3:13 AM -7.6 °F -20.6 °F -14.8 °F 71% 30.51 in 10.0 mi NNW 5.8 mph - N/A   Clear
3:33 AM -7.6 °F -22.1 °F -13.0 °F 77% 30.50 in 10.0 mi NNW 6.9 mph - N/A   Clear
3:52 AM -7.6 °F -22.1 °F -13.0 °F 77% 30.50 in 10.0 mi NNW 6.9 mph - N/A   Clear
4:13 AM -7.6 °F -18.8 °F -13.0 °F 77% 30.50 in 10.0 mi NNW 4.6 mph - N/A   Mostly Cloudy
4:32 AM -7.6 °F -18.8 °F -13.0 °F 77% 30.51 in 10.0 mi NW 4.6 mph - N/A   Scattered Clouds
4:53 AM -7.6 °F -18.8 °F -13.0 °F 77% 30.50 in 10.0 mi NW 4.6 mph - N/A   Scattered Clouds
5:13 AM -7.6 °F -16.5 °F -13.0 °F 77% 30.50 in 10.0 mi NNW 3.5 mph - N/A   Scattered Clouds
5:32 AM -7.6 °F -18.8 °F -13.0 °F 77% 30.50 in 10.0 mi NNW 4.6 mph - N/A   Clear
5:52 AM -7.6 °F -18.8 °F -13.0 °F 77% 30.50 in 10.0 mi NNW 4.6 mph - N/A   Scattered Clouds
6:13 AM -7.6 °F -20.6 °F -11.2 °F 84% 30.50 in 10.0 mi NNW 5.8 mph - N/A   Overcast
6:32 AM -7.6 °F - -11.2 °F 84% 30.50 in 10.0 mi Calm Calm - N/A   Mostly Cloudy
6:53 AM -7.6 °F -18.8 °F -11.2 °F 84% 30.50 in 10.0 mi NW 4.6 mph - N/A   Scattered Clouds
7:12 AM -7.6 °F -16.5 °F -11.2 °F 84% 30.50 in 10.0 mi NW 3.5 mph - N/A   Clear
7:33 AM -7.6 °F -20.6 °F -11.2 °F 84% 30.50 in 10.0 mi NW 5.8 mph - N/A   Clear
7:52 AM -7.6 °F -20.6 °F -11.2 °F 84% 30.50 in 10.0 mi NW 5.8 mph - N/A   Clear
8:13 AM -7.6 °F -18.8 °F -11.2 °F 84% 30.50 in 10.0 mi NW 4.6 mph - N/A   Scattered Clouds
8:33 AM -7.6 °F -20.6 °F -11.2 °F 84% 30.50 in 10.0 mi NW 5.8 mph - N/A   Mostly Cloudy
8:53 AM -5.8 °F -18.4 °F -11.2 °F 77% 30.51 in 10.0 mi NW 5.8 mph - N/A   Overcast
9:12 AM -5.8 °F -18.4 °F -11.2 °F 77% 30.51 in 10.0 mi NW 5.8 mph - N/A   Overcast
9:31 AM -5.8 °F -19.9 °F -11.2 °F 77% 30.51 in 10.0 mi NW 6.9 mph - N/A   Overcast
9:52 AM -4.0 °F -19.0 °F -9.4 °F 78% 30.51 in 10.0 mi NW 8.1 mph - N/A   Overcast
10:12 AM -2.2 °F -16.8 °F -9.4 °F 71% 30.50 in 10.0 mi NW 8.1 mph - N/A   Overcast
10:32 AM -2.2 °F -14.2 °F -9.4 °F 71% 30.51 in 10.0 mi NNW 5.8 mph - N/A   Overcast
10:53 AM -2.2 °F -18.9 °F -9.4 °F 71% 30.51 in 10.0 mi NNW 10.4 mph - N/A   Overcast
11:12 AM -2.2 °F -15.6 °F -9.4 °F 71% 30.51 in 10.0 mi NNW 6.9 mph - N/A   Overcast
11:33 AM -0.4 °F -15.7 °F -7.6 °F 72% 30.51 in 10.0 mi NNW 9.2 mph - N/A   Overcast
11:53 AM -0.4 °F -15.7 °F -9.4 °F 66% 30.50 in 10.0 mi NNW 9.2 mph - N/A   Overcast
12:13 PM -0.4 °F -14.7 °F -7.6 °F 72% 30.50 in 10.0 mi NW 8.1 mph - N/A   Overcast
12:32 PM -0.4 °F -13.4 °F -7.6 °F 72% 30.49 in 10.0 mi NNW 6.9 mph - N/A   Overcast
12:53 PM -0.4 °F -14.7 °F -9.4 °F 66% 30.49 in 10.0 mi NNW 8.1 mph - N/A   Overcast
1:13 PM 1.4 °F -12.5 °F -7.6 °F 66% 30.48 in 10.0 mi WNW 8.1 mph - N/A   Mostly Cloudy
1:31 PM 1.4 °F -12.5 °F -7.6 °F 66% 30.48 in 10.0 mi NW 8.1 mph - N/A   Mostly Cloudy
1:53 PM 1.4 °F -15.3 °F -7.6 °F 66% 30.47 in 10.0 mi NW 11.5 mph - N/A   Clear
2:13 PM 1.4 °F -13.5 °F -9.4 °F 61% 30.47 in 10.0 mi NW 9.2 mph - N/A   Clear
2:33 PM 1.4 °F -12.5 °F -9.4 °F 61% 30.47 in 10.0 mi WNW 8.1 mph - N/A   Clear
2:53 PM 1.4 °F -11.3 °F -9.4 °F 61% 30.47 in 10.0 mi NW 6.9 mph - N/A   Clear
3:12 PM 1.4 °F -11.3 °F -9.4 °F 61% 30.47 in 10.0 mi NW 6.9 mph - N/A   Clear
3:33 PM 1.4 °F -12.5 °F -9.4 °F 61% 30.46 in 10.0 mi WNW 8.1 mph - N/A   Clear
3:53 PM -0.4 °F -14.7 °F -9.4 °F 66% 30.46 in 10.0 mi WNW 8.1 mph - N/A   Clear
4:13 PM -0.4 °F -16.7 °F -9.4 °F 66% 30.46 in 10.0 mi WNW 10.4 mph - N/A   Clear
4:31 PM -0.4 °F -14.7 °F -9.4 °F 66% 30.46 in 10.0 mi WNW 8.1 mph - N/A   Clear
4:53 PM -0.4 °F -13.4 °F -9.4 °F 66% 30.46 in 10.0 mi WNW 6.9 mph - N/A   Clear
5:13 PM -0.4 °F -10.4 °F -9.4 °F 66% 30.46 in 10.0 mi WNW 4.6 mph - N/A   Clear
5:33 PM -2.2 °F -16.8 °F -9.4 °F 71% 30.46 in 10.0 mi NW 8.1 mph - N/A   Clear
5:52 PM -2.2 °F -15.6 °F -11.2 °F 66% 30.46 in 10.0 mi WNW 6.9 mph - N/A   Clear
6:12 PM -2.2 °F -14.2 °F -11.2 °F 66% 30.47 in 10.0 mi NW 5.8 mph - N/A   Clear
6:33 PM -2.2 °F -18.0 °F -11.2 °F 66% 30.46 in 10.0 mi WNW 9.2 mph - N/A   Clear
6:52 PM -2.2 °F -15.6 °F -11.2 °F 66% 30.46 in 10.0 mi WNW 6.9 mph - N/A   Scattered Clouds
7:13 PM -4.0 °F -16.3 °F -11.2 °F 71% 30.46 in 10.0 mi NW 5.8 mph - N/A   Mostly Cloudy
7:32 PM -4.0 °F -14.6 °F -11.2 °F 71% 30.46 in 10.0 mi WNW 4.6 mph - N/A   Overcast
7:52 PM -4.0 °F -16.3 °F -11.2 °F 71% 30.46 in 10.0 mi NW 5.8 mph - N/A   Mostly Cloudy
8:13 PM -5.8 °F -21.2 °F -11.2 °F 77% 30.46 in 10.0 mi WNW 8.1 mph - N/A   Mostly Cloudy
8:32 PM -5.8 °F -19.9 °F -11.2 °F 77% 30.46 in 10.0 mi NW 6.9 mph - N/A   Mostly Cloudy
8:53 PM -5.8 °F -19.9 °F -11.2 °F 77% 30.46 in 10.0 mi WNW 6.9 mph - N/A   Mostly Cloudy
9:12 PM -5.8 °F -16.7 °F -11.2 °F 77% 30.46 in 10.0 mi WNW 4.6 mph - N/A   Mostly Cloudy
9:33 PM -7.6 °F -18.8 °F -11.2 °F 84% 30.45 in 10.0 mi West 4.6 mph - N/A   Scattered Clouds
9:53 PM -7.6 °F -16.5 °F -13.0 °F 77% 30.45 in 10.0 mi West 3.5 mph - N/A   Clear
10:13 PM -7.6 °F - -13.0 °F 77% 30.44 in 10.0 mi Calm Calm - N/A   Clear
10:33 PM -9.4 °F - -13.0 °F 84% 30.44 in 10.0 mi Calm Calm - N/A   Clear
10:53 PM -9.4 °F - -14.8 °F 77% 30.43 in 10.0 mi Calm Calm - N/A   Clear
11:12 PM -9.4 °F - -13.0 °F 84% 30.41 in 10.0 mi Calm Calm - N/A   Clear
11:33 PM -9.4 °F - -14.8 °F 77% 30.41 in 7.0 mi Calm Calm - N/A   Clear
11:52 PM -9.4 °F - -14.8 °F 77% 30.41 in 10.0 mi Calm Calm - N/A   Clear